Regional Weather Roundup
Issued by NWS

Home | Current Version | Previous Version | Text Only | Print | Product List | Glossary On
Versions: 1 2 3 4 5 6 7 8 9 10 11 12 13 14 15 16 17 18 19 20 21 22 23 24 25 26 27 28
000
ASCA42 TJSJ 241310
RWRPR
PUERTO RICO/U.S. VIRGIN ISLANDS HOURLY WEATHER ROUNDUP
NATIONAL WEATHER SERVICE SAN JUAN PR
900 AM AST SUN JUL 24 2016

PRZ001-004-241400-
PUERTO RICO

CITY           SKY/WX    TMP DP  RH WIND       PRES   REMARKS
SAN JUAN LMM   MOSUNNY   84  75  74 E13       30.02S HX  92
AGUADILLA      SUNNY     82  73  74 E12G18    30.04S
CEIBA          PTSUNNY   81  77  89 CALM      30.05S
$$

PRZ006-007-241400-
U.S. VIRGIN ISLANDS

CITY           SKY/WX    TMP DP  RH WIND       PRES   REMARKS
CHRISTIANSTED  MOSUNNY   84  75  74 E16       30.02R HX  92
$$

HOURLY WEATHER ROUNDUP FOR THE NEWS MEDIA

CITY           SKY/WX    TMP DP  RH WIND       PRES   REMARKS
ORLANDO        SUNNY     82  76  81 S7        30.07R
NEW YORK       PTSUNNY   82  59  45 N8        29.99S
NEWARK         PTSUNNY   83  60  45 CALM      29.99R
CHICAGO        PTSUNNY   75  71  87 S15       29.92R
HARTFORD       SUNNY     77  63  61 CALM      29.94R
BOSTON         SUNNY     77  60  55 NW10      29.93S
DALLAS         MOSUNNY   84  72  67 S6        29.94R
PHILADELPHIA   MOSUNNY   85  61  44 N8        29.99F
LOS ANGELES    PTCLDY    68  64  87 E3        29.85R
WASHINGTON DC  FAIR      84  66  54 CALM      30.01S



USA.gov is the U.S. government's official web portal to all federal, state and local government web resources and services.